Location: Eitze
(52.9840°N, 9.6894°E)
Time: 20:23:13
(UTC+00:00)

Cosmos 2298 Rocket - Pass Details

Date: 19 May 2025
Orbit: 773 x 782 km, 74.0° (Epoch: 20 June)

Event Time Altitude Azimuth Distance (km) Brightness Sun altitude
Rises 21:16:18 0° 332° (NNW) 3,282 9.4 -12.4°
Reaches altitude 10° 21:18:43 10° 329° (NNW) 2,349 8.0 -12.6°
Maximum altitude 21:23:59 63° 250° (WSW) 877 4.3 -13.0°
Enters shadow 21:27:58 17° 173° (S) 1,872 5.4 -13.3°
